Flag for U.S.A. Weather past 2 weeks in Portland, Maine, U.S.A.

Now
45 °F

Sunny.


Feels Like: 40 °F
Forecast: 40 / 49 °F
Wind: 10 mph from East

Location: Portland - Portland International Jetport


UV Index: 5 (Moderate)

Visibility: 10 mi


Pressure: 30.52 "Hg

Humidity: 37%

Dew point: 20 °F

Location of PortlandLocation

Historic Weather in Portland

°F

Portland temperature yesterday

Maximum temperature yesterday: 58 °F (at 1:51 PM)
Minimum temperature yesterday: 32 °F (at 12:51 AM)
Average temperature yesterday: 44 °F

Past Weeks' High & Low Weather Summary

 TemperatureHumidityPressure
High69 °F (Apr 11, 3:51 PM)100% (Apr 8, 6:51 AM)30.86 "Hg (Apr 8, 6:51 AM)
Low23 °F (Apr 17, 5:51 AM)21% (Apr 11, 12:51 PM)29.30 "Hg (Apr 8, 5:51 PM)
Average44 °F63%30.06 "Hg
* Reported Apr 5 9:51 AM — Apr 20 9:51 AM, Portland, Weather by CustomWeather, © 2014

Note: Actual official high and low records may vary slightly from our data, if they occured in-between our weather recording intervals... More about our weather records

Advertising

Historic Weather Conditions — Data for Previous 24 hours

 ConditionsComfort  
Time TempWeatherWind HumidityBarometerVisibility
9:51 AM
Apr 20
45 °FSunny.10 mph37%30.52 "Hg10 mi
8:51 AM44 °FSunny.10 mph35%30.52 "Hg10 mi
7:51 AM41 °FSunny.8 mph38%30.51 "Hg10 mi
6:51 AM37 °FSunny.9 mph46%30.49 "Hg10 mi
5:51 AM32 °FClear.8 mph56%30.48 "Hg10 mi
4:51 AM29 °FPassing clouds.7 mph75%30.45 "Hg10 mi
3:51 AM33 °FClear.7 mph61%30.45 "Hg10 mi
2:51 AM32 °FClear.3 mph66%30.44 "Hg10 mi
1:51 AM34 °FClear.3 mph61%30.43 "Hg10 mi
12:51 AM35 °FClear.7 mph61%30.43 "Hg10 mi
11:51 PM
Apr 19
37 °FClear.8 mph54%30.41 "Hg10 mi
10:51 PM42 °FClear.7 mph43%30.40 "Hg10 mi
9:51 PM42 °FClear.7 mph47%30.38 "Hg10 mi
8:51 PM44 °FPassing clouds.9 mph43%30.35 "Hg10 mi
7:51 PM46 °FPassing clouds.12 mph42%30.31 "Hg10 mi
6:51 PM48 °FPassing clouds.15 mph39%30.28 "Hg10 mi
5:51 PM51 °FScattered clouds.18 mph36%30.26 "Hg10 mi
4:51 PM53 °FScattered clouds.22 mph37%30.23 "Hg10 mi
3:51 PM54 °FScattered clouds.16 mph40%30.20 "Hg10 mi
2:51 PM55 °FPartly sunny.15 mph39%30.18 "Hg10 mi
1:51 PM58 °FScattered clouds.21 mph38%30.17 "Hg10 mi
12:51 PM57 °FPassing clouds.14 mph37%30.18 "Hg10 mi
11:51 AM56 °FScattered clouds.16 mph42%30.17 "Hg10 mi
Weather by CustomWeather, © 2014

See weather overview